Flag for U.S.A. Weather past 2 weeks in San Francisco, California, U.S.A.

Now
59 °F

Mostly cloudy.


Feels Like: 58 °F
Forecast: 52 / 62 °F
Wind: 8 mph from West

Location: San Francisco International Airport


UV Index: 0 (Low)

Visibility: 10 mi


Pressure: 30.13 "Hg

Humidity: 84%

Dew point: 54 °F

Location of San FranciscoLocation

Historic Weather in San Francisco

°F

San Francisco temperature yesterday

Maximum temperature yesterday: 65 °F (at 1:56 PM)
Minimum temperature yesterday: 52 °F (at 3:56 AM)
Average temperature yesterday: 58 °F

Past Weeks' High & Low Weather Summary

 TemperatureHumidityPressure
High78 °F (Apr 20, 2:56 PM)96% (Apr 10, 2:56 AM)30.16 "Hg (Apr 10, 2:56 AM)
Low50 °F (Apr 10, 2:56 AM)31% (Apr 20, 2:56 PM)29.80 "Hg (Apr 17, 5:56 AM)
Average58 °F74%30.00 "Hg
* Reported Apr 9 8:56 AM — Apr 24 8:56 AM, San Francisco, Weather by CustomWeather, © 2014

Note: Actual official high and low records may vary slightly from our data, if they occured in-between our weather recording intervals... More about our weather records

Advertising

Historic Weather Conditions — Data for Previous 24 hours

 ConditionsComfort  
Time TempWeatherWind HumidityBarometerVisibility
8:56 AM
Apr 24
58 °FPartly sunny.9 mph81%30.13 "Hg10 mi
7:56 AM57 °FBroken clouds.5 mph83%30.11 "Hg10 mi
6:56 AM56 °FPartly cloudy.8 mph90%30.10 "Hg10 mi
5:56 AM56 °FPartly cloudy.13 mph84%30.09 "Hg10 mi
4:56 AM55 °FMostly cloudy.16 mph90%30.09 "Hg10 mi
3:56 AM55 °FPassing clouds.13 mph90%30.09 "Hg10 mi
2:56 AM56 °FPassing clouds.8 mph87%30.09 "Hg10 mi
1:56 AM56 °FPassing clouds.8 mph87%30.09 "Hg10 mi
12:56 AM56 °FPassing clouds.8 mph84%30.11 "Hg10 mi
11:56 PM
Apr 23
56 °FPassing clouds.12 mph84%30.11 "Hg10 mi
10:56 PM57 °FPassing clouds.17 mph78%30.11 "Hg10 mi
9:56 PM57 °FPassing clouds.15 mph78%30.12 "Hg10 mi
8:56 PM58 °FPassing clouds.9 mph75%30.10 "Hg10 mi
7:56 PM58 °FPartly sunny.24 mph72%30.10 "Hg10 mi
6:56 PM60 °FScattered clouds.25 mph62%30.10 "Hg10 mi
5:56 PM62 °FScattered clouds.26 mph58%30.11 "Hg10 mi
4:56 PM63 °FScattered clouds.25 mph50%30.10 "Hg10 mi
3:56 PM63 °FScattered clouds.22 mph54%30.11 "Hg10 mi
2:56 PM64 °FScattered clouds.24 mph52%30.14 "Hg10 mi
1:56 PM65 °FScattered clouds.18 mph49%30.14 "Hg10 mi
12:56 PM64 °FPartly sunny.18 mph49%30.15 "Hg10 mi
11:56 AM63 °FPartly sunny.15 mph48%30.16 "Hg10 mi
10:56 AM62 °FPartly sunny.12 mph46%30.16 "Hg10 mi
Weather by CustomWeather, © 2014

See weather overview